[[{"header":{"parameterUnit":"m.s-1","parameterCategory":1,"la1":30.2991,"la2":30.254,"lo1":-89.0895,"lo2":-89.0444,"dy":0.0017,"dx":0.0017,"nx":28,"ny":28,"refTime":"2024-05-15T09:00:00:Z","depth":0,"parameterNumber":2,"parameterNumberName":"U-component_of_WINDS"},"data":[0,0,0,0,0,0,0,0,0,0,0,0,0,0,0,0,0,0,0,0,0,0,0,0,0,0,0,0,0,0,0,0,0,0,0,0,0,0,0,0,0,0,0,0,0,0,0,0,0,0,0,0,0,0,0,0,0,0,3.5258,3.5259,0,3.5326,3.5326,3.5327,3.5299,3.5297,3.5295,3.5294,3.5369,3.5372,3.5376,0,0,0,0,0,0,0,0,0,0,0,0,0,3.5112,3.5115,3.5258,3.5259,3.526,3.5325,3.5326,3.5327,3.5299,3.5297,3.5295,3.5293,3.5368,3.5372,3.5376,0,0,0,0,0,0,0,0,0,0,0,0,0,3.5177,3.5116,3.5258,3.5253,3.5254,3.5325,3.5326,3.5328,3.5299,3.5297,3.5294,3.5292,3.5366,3.5371,3.5376,3.5458,0,0,3.5393,3.5395,0,0,0,0,0,0,0,0,3.5174,3.5183,3.5253,3.5254,3.5254,3.5301,3.5302,3.5372,3.53,3.5282,3.5294,3.5291,3.5349,3.5355,3.5373,3.5462,3.5465,3.5393,3.5396,3.5399,3.54,0,0,0,0,0,0,0,3.5169,3.518,3.5285,3.5254,3.5255,3.5251,3.5257,3.5315,3.5329,3.5284,3.5282,3.529,3.5348,3.5368,3.5375,3.5466,3.5393,3.5398,3.5401,3.5403,3.563,3.5633,0,0,0,0,0,0,3.5164,3.5176,3.5283,3.5287,3.5207,3.5255,3.5262,3.5289,3.5328,3.5331,3.5292,3.5288,3.5361,3.5369,3.5377,3.5479,3.5398,3.5403,3.5406,3.5627,3.5631,3.5634,0,0,0,0,0,0,3.5161,3.5174,3.528,3.5231,3.5244,3.526,3.529,3.5291,3.5311,3.5334,3.5337,3.5309,3.5359,3.537,3.5439,3.5482,3.5406,3.5411,3.5624,3.5628,3.5632,3.5682,0,0,0,0,0,0,3.5157,3.5173,3.5202,3.5232,3.5247,3.5338,3.5292,3.5294,3.532,3.5316,3.5351,3.5355,3.5358,3.5431,3.5444,3.5487,3.5415,3.562,3.5626,3.5631,3.5677,3.5687,3.5697,0,0,0,0,0,3.5152,3.5213,3.5203,3.5216,3.5284,3.5341,3.535,3.535,3.5323,3.5354,3.537,3.5354,3.5474,3.5439,3.5453,3.5498,3.5618,3.5624,3.5631,3.5672,3.5685,3.5696,0,0,0,0,0,0,3.5189,3.5217,3.5206,3.5279,3.5308,3.5336,3.5375,3.5364,3.5402,3.5397,3.5398,3.5406,3.5479,3.5495,3.5455,3.5582,3.5542,3.5552,3.5569,3.5582,3.5591,3.5587,3.5419,0,0,0,0,0,3.5205,3.5247,3.527,3.5333,3.5347,3.5359,3.5384,3.5382,3.5412,3.5425,3.5445,3.5477,3.5522,3.5552,3.5595,3.5678,3.5688,3.5717,3.5727,3.5735,3.5744,3.5794,3.5808,3.5655,3.5655,3.5655,0,0,3.5241,3.5261,3.5288,3.5341,3.5363,3.5409,3.5369,3.5419,3.5455,3.5433,3.55,3.5516,3.5552,3.563,3.5665,3.5646,3.5788,3.5743,3.5749,3.5754,3.5802,3.5817,3.583,3.566,3.5659,3.5658,0,0,3.5329,3.5347,3.5403,3.5426,3.5459,3.5467,3.548,3.5511,3.552,3.5587,3.5573,3.5616,3.5693,3.5721,3.5745,3.5847,3.5835,3.5861,3.5914,3.5963,3.5975,3.5986,3.6026,3.604,3.5869,3.5869,3.587,0,3.5369,3.5436,3.5433,3.5485,3.5511,3.5492,3.5551,3.5574,3.562,3.564,3.5617,3.5716,3.5738,3.5825,3.585,3.5868,3.5887,3.5858,3.5973,3.5984,3.5994,3.6033,3.6047,3.5873,3.5872,3.5872,3.5872,0,3.5486,3.5533,3.5575,3.562,3.565,3.5705,3.5713,3.5745,3.5741,3.5752,3.5823,3.5849,3.5899,3.5918,3.5915,3.6006,3.5993,3.5971,3.5932,3.6012,3.6048,3.6063,3.5877,3.5876,3.5875,3.5874,0,0,3.5601,3.5644,3.566,3.5682,3.5718,3.5756,3.5812,3.5859,3.5888,3.5921,3.5971,3.6038,3.6019,3.6047,3.6047,3.6089,3.6173,3.6063,3.6064,3.6086,3.628,3.6299,3.6315,3.6165,3.6167,3.6169,3.6278,0,3.5695,3.5791,3.5792,3.5882,3.5928,3.5912,3.5961,3.5991,3.6003,3.6046,3.606,3.6109,3.6078,3.6096,3.6136,3.6154,3.6213,3.6146,3.6215,3.6218,3.621,3.6334,3.6353,3.6454,3.6292,3.6294,3.6296,0,3.5818,3.5855,3.595,3.5983,3.6002,3.6046,3.6092,3.6132,3.6167,3.6173,3.6205,3.6199,3.626,3.6216,3.6303,3.6257,3.6286,3.6299,3.6303,3.6312,3.6264,3.6351,3.6486,3.6503,3.6318,3.6316,3.6315,0,3.5898,3.5971,3.6038,3.6057,3.6096,3.6128,3.6146,3.6178,3.6208,3.6248,3.6268,3.6315,3.6342,3.6381,3.6389,3.6356,3.6477,3.6433,3.6488,3.6488,3.6517,3.6516,3.6663,3.6529,3.6528,3.6528,3.6528,0,3.6005,3.6065,3.6075,3.6117,3.6185,3.6185,3.6253,3.6269,3.6298,3.6345,3.6333,3.6378,3.6385,3.6433,3.6439,3.6513,3.6524,3.6534,3.6536,3.6537,3.6536,3.6558,3.6553,3.6532,3.6531,3.653,3.653,0,3.6107,3.6115,3.6188,3.6219,3.6229,3.6278,3.6306,3.6348,3.6359,3.6419,3.6433,3.6452,3.6508,3.6519,3.6585,3.659,3.6678,3.6671,3.6667,3.6667,3.6723,3.6719,3.6892,3.6917,3.6763,3.6764,3.6765,0,3.6176,3.6222,3.6259,3.6289,3.6308,3.6356,3.6387,3.639,3.6423,3.6467,3.6505,3.6559,3.6603,3.6693,3.6715,3.6766,3.6763,3.682,3.6771,3.6772,3.6769,3.6768,3.6775,3.6831,3.6832,3.6834,3.6835,0,3.6301,3.6304,3.6347,3.6393,3.643,3.6466,3.6501,3.6527,3.6535,3.6573,3.6629,3.6663,3.6731,3.6787,3.6839,3.6861,3.6852,3.685,3.6866,3.687,3.6867,3.6874,3.6697,3.6846,3.6845,3.6844,3.6844,3.6843,3.6392,3.6434,3.6467,3.6516,3.6543,3.6576,3.6618,3.6635,3.6681,3.6736,3.6735,3.6798,3.6835,3.6903,3.6929,3.698,3.6963,3.6985,3.6991,3.6998,3.7005,3.6855,3.6989,3.6989,3.6988,3.6988,3.6988,0,3.652,3.6541,3.6586,3.6636,3.6676,3.666,3.6699,3.6735,3.679,3.6824,3.6867,3.6934,3.6989,3.7014,3.7069,3.7106,3.7103,3.712,3.712,3.7126,3.7015,3.6998,3.7122,3.7122,3.7122,3.7122,3.7122,3.7122,3.6592,3.6663,3.6669,3.6755,3.6775,3.6836,3.686,3.6892,3.692,3.6994,3.7039,3.7055,3.7087,3.7144,3.7195,3.7201,3.7224,3.7245,3.725,3.7147,3.7133,3.712,3.7104,3.7249,3.7249,3.7357,3.7358,3.7358]},{"header":{"parameterUnit":"m.s-1","parameterCategory":1,"la1":30.2991,"la2":30.254,"lo1":-89.0895,"lo2":-89.0444,"dy":0.0017,"dx":0.0017,"nx":28,"ny":28,"refTime":"2024-05-15T09:00:00:Z","depth":0,"parameterNumber":3,"parameterNumberName":"V-component_of_WINDS"},"data":[0,0,0,0,0,0,0,0,0,0,0,0,0,0,0,0,0,0,0,0,0,0,0,0,0,0,0,0,0,0,0,0,0,0,0,0,0,0,0,0,0,0,0,0,0,0,0,0,0,0,0,0,0,0,0,0,0,0,-0.2266,-0.2265,0,-0.214,-0.2139,-0.2137,-0.2154,-0.2156,-0.2158,-0.216,-0.2027,-0.2022,-0.2017,0,0,0,0,0,0,0,0,0,0,0,0,0,-0.2521,-0.2516,-0.2266,-0.2265,-0.2263,-0.214,-0.2139,-0.2137,-0.2153,-0.2156,-0.2158,-0.2161,-0.2029,-0.2023,-0.2016,0,0,0,0,0,0,0,0,0,0,0,0,0,-0.2404,-0.2515,-0.2267,-0.2257,-0.2255,-0.2141,-0.2138,-0.2136,-0.2153,-0.2156,-0.2159,-0.2162,-0.2031,-0.2023,-0.2015,-0.1902,0,0,-0.199,-0.1987,0,0,0,0,0,0,0,0,-0.2411,-0.2395,-0.226,-0.2257,-0.2255,-0.2166,-0.218,-0.2058,-0.2152,-0.2191,-0.216,-0.2164,-0.2071,-0.206,-0.2029,-0.1896,-0.189,-0.1989,-0.1984,-0.1981,-0.1979,0,0,0,0,0,0,0,-0.2419,-0.24,-0.2216,-0.2258,-0.2255,-0.2258,-0.2245,-0.2157,-0.2115,-0.2188,-0.2189,-0.2174,-0.207,-0.2037,-0.2026,-0.1888,-0.199,-0.1982,-0.1977,-0.1974,-0.1659,-0.1656,0,0,0,0,0,0,-0.243,-0.2407,-0.222,-0.2213,-0.2342,-0.2251,-0.2236,-0.2191,-0.2116,-0.2108,-0.2172,-0.2175,-0.2049,-0.2035,-0.2021,-0.1886,-0.1981,-0.1973,-0.1969,-0.1663,-0.1659,-0.1655,0,0,0,0,0,0,-0.2435,-0.2413,-0.2225,-0.231,-0.2286,-0.2244,-0.2192,-0.2187,-0.2154,-0.2103,-0.2096,-0.2145,-0.2051,-0.2033,-0.1933,-0.1882,-0.197,-0.1962,-0.1667,-0.1662,-0.1657,-0.1613,0,0,0,0,0,0,-0.2442,-0.2415,-0.2371,-0.2309,-0.2282,-0.2139,-0.2189,-0.2182,-0.214,-0.2144,-0.2077,-0.2069,-0.2052,-0.1945,-0.1924,-0.1872,-0.1956,-0.1671,-0.1665,-0.1658,-0.1619,-0.1607,-0.1597,0,0,0,0,0,-0.2451,-0.2363,-0.2369,-0.2346,-0.2227,-0.2136,-0.212,-0.2104,-0.2136,-0.2092,-0.206,-0.2071,-0.189,-0.1934,-0.1912,-0.1856,-0.1674,-0.1666,-0.1659,-0.1624,-0.161,-0.1597,0,0,0,0,0,0,-0.2418,-0.2354,-0.236,-0.2249,-0.2198,-0.2139,-0.2083,-0.2089,-0.2027,-0.2032,-0.2014,-0.1999,-0.1898,-0.1867,-0.1917,-0.1744,-0.1787,-0.1774,-0.1768,-0.1754,-0.1743,-0.1753,-0.1949,0,0,0,0,0,-0.2398,-0.233,-0.2278,-0.2184,-0.2159,-0.2125,-0.2085,-0.2077,-0.2023,-0.2001,-0.1962,-0.1908,-0.184,-0.1795,-0.1729,-0.1615,-0.1602,-0.1565,-0.1555,-0.1546,-0.1535,-0.1475,-0.1459,-0.163,-0.163,-0.163,0,0,-0.2355,-0.2312,-0.227,-0.2177,-0.2136,-0.2067,-0.2107,-0.2031,-0.1979,-0.1989,-0.1893,-0.1863,-0.1802,-0.1695,-0.1646,-0.1666,-0.1485,-0.1536,-0.1529,-0.1523,-0.1466,-0.1449,-0.1435,-0.1624,-0.1625,-0.1626,0,0,-0.2243,-0.2202,-0.2122,-0.2081,-0.202,-0.1999,-0.198,-0.192,-0.1901,-0.1805,-0.1812,-0.175,-0.1632,-0.1589,-0.1552,-0.1427,-0.1435,-0.1406,-0.1348,-0.129,-0.1277,-0.1265,-0.1222,-0.1206,-0.1395,-0.1395,-0.1395,0,-0.2197,-0.2093,-0.2079,-0.2003,-0.1963,-0.1971,-0.189,-0.185,-0.177,-0.1742,-0.1766,-0.1621,-0.158,-0.1465,-0.1435,-0.1403,-0.1382,-0.1413,-0.128,-0.1268,-0.1256,-0.1215,-0.1199,-0.1392,-0.1392,-0.1393,-0.1393,0,-0.2041,-0.1969,-0.1911,-0.1836,-0.1789,-0.171,-0.1685,-0.1639,-0.1636,-0.1613,-0.1516,-0.1468,-0.1394,-0.1366,-0.136,-0.125,-0.1265,-0.1284,-0.1327,-0.1237,-0.1199,-0.1183,-0.1388,-0.1389,-0.139,-0.139,0,0,-0.1902,-0.1823,-0.1802,-0.1769,-0.1704,-0.1648,-0.1571,-0.15,-0.1462,-0.1407,-0.1343,-0.1244,-0.1263,-0.1221,-0.1212,-0.116,-0.1067,-0.1186,-0.1185,-0.1167,-0.0945,-0.0931,-0.0913,-0.1072,-0.1069,-0.1067,-0.0951,0,-0.1784,-0.1648,-0.1635,-0.1514,-0.1448,-0.1457,-0.139,-0.1343,-0.1319,-0.126,-0.1234,-0.1165,-0.1194,-0.1169,-0.1119,-0.1089,-0.1022,-0.1097,-0.1013,-0.101,-0.1029,-0.0893,-0.0877,-0.077,-0.0935,-0.0932,-0.0931,0,-0.1627,-0.1571,-0.1444,-0.1391,-0.1363,-0.1303,-0.1239,-0.1182,-0.1129,-0.1116,-0.1071,-0.1069,-0.0991,-0.1037,-0.0929,-0.098,-0.0945,-0.0926,-0.0921,-0.0913,-0.0965,-0.0882,-0.0735,-0.072,-0.0906,-0.0908,-0.091,0,-0.1541,-0.1433,-0.1344,-0.1315,-0.1251,-0.1209,-0.118,-0.1131,-0.109,-0.1034,-0.1007,-0.0942,-0.0906,-0.0856,-0.0837,-0.0872,-0.0731,-0.0775,-0.0718,-0.0719,-0.0688,-0.0691,-0.0535,-0.0664,-0.0664,-0.0664,-0.0665,0,-0.1411,-0.1334,-0.1305,-0.125,-0.1164,-0.1149,-0.1064,-0.1037,-0.0994,-0.0935,-0.0937,-0.0881,-0.0859,-0.08,-0.0785,-0.0699,-0.0682,-0.067,-0.0667,-0.067,-0.0672,-0.0648,-0.0655,-0.066,-0.0661,-0.0662,-0.0663,0,-0.13,-0.1277,-0.1181,-0.1129,-0.1114,-0.1053,-0.1009,-0.0956,-0.0935,-0.0859,-0.0841,-0.0807,-0.0738,-0.0714,-0.0629,-0.0619,-0.052,-0.0523,-0.0538,-0.0538,-0.0484,-0.049,-0.0308,-0.0284,-0.0427,-0.0426,-0.0425,0,-0.1219,-0.116,-0.1103,-0.1064,-0.1034,-0.0971,-0.093,-0.0915,-0.0872,-0.081,-0.0765,-0.0697,-0.0642,-0.0531,-0.0498,-0.0434,-0.0436,-0.0377,-0.0427,-0.0433,-0.0438,-0.0442,-0.0437,-0.0368,-0.0366,-0.0365,-0.0364,0,-0.1079,-0.1071,-0.1013,-0.0952,-0.0904,-0.0854,-0.0806,-0.0774,-0.0752,-0.0704,-0.0634,-0.0592,-0.0507,-0.044,-0.0375,-0.0345,-0.0351,-0.0349,-0.0333,-0.0336,-0.0348,-0.0343,-0.0515,-0.0353,-0.0354,-0.0355,-0.0356,-0.0356,-0.0981,-0.093,-0.0883,-0.0819,-0.0782,-0.0738,-0.0687,-0.0661,-0.0602,-0.0533,-0.0527,-0.0453,-0.0404,-0.0319,-0.0286,-0.0228,-0.0244,-0.022,-0.0215,-0.0209,-0.0206,-0.0357,-0.0216,-0.0216,-0.0216,-0.0216,-0.0217,0,-0.0843,-0.0813,-0.0755,-0.0689,-0.0639,-0.0651,-0.0599,-0.0557,-0.0491,-0.0446,-0.0393,-0.0314,-0.025,-0.0213,-0.0149,-0.011,-0.0111,-0.0094,-0.0097,-0.009,-0.0194,-0.0215,-0.0094,-0.0094,-0.0094,-0.0094,-0.0094,-0.0094,-0.0765,-0.068,-0.0667,-0.0565,-0.0536,-0.0464,-0.0434,-0.0394,-0.0359,-0.0271,-0.0218,-0.0196,-0.0155,-0.0088,-0.003,-0.0021,0.0002,0.0021,0.0027,-0.007,-0.0083,-0.0095,-0.0115,0.0026,0.0026,0.0126,0.0127,0.0128]}]]